Flag for Spain Weather past 2 weeks in Madrid, Spain

Now
45 °F

Scattered clouds.


Feels Like: 37 °F
Forecast: 38 / 47 °F
Wind: 18 mph from West

Location: Madrid / Cuatro Vientos

Current Time: Feb 1, 2015 at 6:36:42 PM

Latest Report: Feb 1, 2015 at 6:00 PM


Visibility: N/A

Pressure: 29.95 "Hg

Humidity: 46%

Dew point: 25 °F

Location of MadridLocation

Historic Weather in Madrid — Graph

°F

Madrid temperature yesterday

Maximum temperature yesterday: 48 °F (at 12:30 PM)
Minimum temperature yesterday: 37 °F (at 8:00 PM)
Average temperature yesterday: 44 °F

Past Weeks' High & Low Weather Summary

 TemperatureHumidityPressure
High61 °F (Jan 27, 3:30 PM)100% (Jan 18, 5:30 PM)30.42 "Hg (Jan 18, 5:30 PM)
Low27 °F (Jan 24, 7:30 AM)18% (Jan 25, 5:00 PM)29.33 "Hg (Jan 31, 7:00 AM)
Average44 °F63%30.02 "Hg
* Reported Jan 17 5:00 PM — Feb 1 5:30 PM, Madrid, Weather by CustomWeather, © 2014

Note: Actual official high and low records may vary slightly from our data, if they occured in-between our weather recording intervals... More about our weather records

Advertising

Madrid weather history for previous 24 hours

 ConditionsComfort  
Time TempWeatherWind HumidityBarometerVisibility
5:30 PM
Feb 1
45 °FScattered clouds.21 mph46%29.95 "HgN/A
5:00 PM46 °FScattered clouds.22 mph43%29.95 "HgN/A
4:30 PM45 °FScattered clouds.17 mph46%29.95 "HgN/A
4:00 PM45 °FScattered clouds.15 mph46%29.95 "HgN/A
3:30 PM45 °FScattered clouds.17 mph49%29.95 "HgN/A
3:00 PM46 °FScattered clouds.18 mph43%29.98 "HgN/A
2:30 PM46 °FScattered clouds.15 mph46%29.98 "HgN/A
2:00 PM46 °FScattered clouds.10 mph46%29.98 "HgN/A
1:30 PM45 °FScattered clouds.15 mph49%29.98 "HgN/A
1:00 PM45 °FScattered clouds.14 mph49%29.98 "HgN/A
12:30 PM45 °FPassing clouds.17 mph49%29.98 "HgN/A
12:00 PM43 °FPassing clouds.16 mph53%29.98 "HgN/A
11:30 AM41 °FPassing clouds.15 mph57%29.98 "HgN/A
11:00 AM41 °FPassing clouds.20 mph57%29.98 "HgN/A
10:30 AM39 °FPassing clouds.20 mph61%29.95 "HgN/A
10:00 AM37 °FPassing clouds.20 mph65%29.95 "HgN/A
9:30 AM37 °FPassing clouds.16 mph65%29.92 "HgN/A
9:00 AM36 °FPassing clouds.13 mph65%29.92 "HgN/A
8:30 AM36 °FPassing clouds.16 mph65%29.92 "HgN/A
8:00 AM36 °FPassing clouds.14 mph65%29.89 "HgN/A
7:30 AM36 °FPassing clouds.17 mph65%29.89 "HgN/A
7:00 AM36 °FPassing clouds.17 mph65%29.86 "HgN/A
8:00 PM
Jan 31
37 °FPassing clouds.16 mph81%29.68 "HgN/A
7:30 PM39 °FPartly cloudy.14 mph61%29.68 "HgN/A
7:00 PM41 °FPartly cloudy.15 mph66%29.65 "HgN/A
6:30 PM39 °FBroken clouds.13 mph70%29.62 "HgN/A
6:00 PM39 °FBroken clouds.16 mph75%29.62 "HgN/A
Weather by CustomWeather, © 2014

See weather overviewHow to use our weather pages